Weather History for KLWB - January, 2015

Change the Weather History Date:

Thursday, January 15, 2015

  Actual Average Record
Temperature  
Mean Temperature 27 °F 28 °F  
Max Temperature 33 °F 38 °F 64 °F (2007)
Min Temperature 20 °F 18 °F -6 °F (1994)
Degree Days  
Heating Degree Days 38    
Month to date heating degree days 540  
Since 1 July heating degree days 2565  
Cooling Degree Days 0    
Month to date cooling degree days 0  
Year to date cooling degree days 0  
Moisture  
Dew Point 23 °F    
Average Humidity 77    
Maximum Humidity 88    
Minimum Humidity 66    
Precipitation  
Precipitation 0.00 in - 0.92 in (2013)
Snow  
Snow T in - - ()
Month to date snowfall T  
Since 1 July snowfall 2.0  
Snow Depth 0.00 in    
Sea Level Pressure  
Sea Level Pressure 30.08 in    
Wind  
Wind Speed 4 mph (WSW)    
Max Wind Speed 8 mph    
Max Gust Speed -    
Visibility 10 miles    
Events Snow    
T = Trace of Precipitation, MM = Missing Value Source: NWS Daily Summary

Daily Weather History Graph

Daily Weather History Graph

Search for Another Location

Airport or City:

Trip Planner

Search our weather history database for the weather conditions in past years. The results will help you decide how hot, cold, wet, or windy it might be!

Date:

Astronomy

Jan. 15, 2015 Rise Set
Actual Time 7:36 AM EST 5:26 PM EST
Civil Twilight 7:07 AM EST 5:54 PM EST
Nautical Twilight 6:35 AM EST 6:27 PM EST
Astronomical Twilight 6:03 AM EST 6:58 PM EST
Moon 2:29 AM EST (1/15) 1:15 PM EST (1/15)
Length of Visible Light 10h 47m
Length of Day
9h 50m
Waning Crescent, 28% of the Moon is Illuminated
Jan 15
Waning Crescent
Jan 20
New
Jan 26
First Quarter
Feb 3
Full
Feb 11
Last Quarter

Hourly Weather History & Observations

Time (EST) Temp. Windchill Dew Point Humidity Pressure Visibility Wind Dir Wind Speed Gust Speed Precip Events Conditions
12:15 AM 27.5 °F 22.2 °F 20.1 °F 74% 30.15 in 10.0 mi WNW 4.6 mph - N/A   Overcast
12:35 AM 27.5 °F 21.1 °F 20.1 °F 74% 30.15 in 10.0 mi WNW 5.8 mph - N/A   Overcast
12:55 AM 27.3 °F 22.0 °F 19.9 °F 74% 30.14 in 10.0 mi NW 4.6 mph - N/A   Overcast
1:15 AM 27.0 °F 20.5 °F 19.4 °F 73% 30.14 in 10.0 mi West 5.8 mph - N/A   Overcast
1:35 AM 26.6 °F 21.2 °F 19.0 °F 73% 30.14 in 10.0 mi WNW 4.6 mph - N/A   Overcast
1:55 AM 26.6 °F 21.2 °F 19.0 °F 73% 30.14 in 10.0 mi WNW 4.6 mph - N/A   Mostly Cloudy
2:15 AM 26.6 °F 22.6 °F 19.2 °F 74% 30.14 in 10.0 mi WNW 3.5 mph - N/A   Overcast
2:35 AM 26.6 °F - 19.4 °F 74% 30.14 in 10.0 mi Calm Calm - N/A   Overcast
2:55 AM 26.4 °F 22.4 °F 19.4 °F 75% 30.14 in 10.0 mi WNW 3.5 mph - N/A   Overcast
3:15 AM 26.1 °F - 19.4 °F 76% 30.14 in 10.0 mi Calm Calm - N/A   Overcast
3:35 AM 25.9 °F 21.7 °F 19.4 °F 76% 30.14 in 10.0 mi WNW 3.5 mph - N/A   Overcast
3:55 AM 25.5 °F - 19.4 °F 78% 30.13 in 10.0 mi Calm Calm - N/A   Mostly Cloudy
4:15 AM 24.8 °F - 19.4 °F 80% 30.12 in 10.0 mi Calm Calm - N/A   Scattered Clouds
4:35 AM 24.4 °F - 19.2 °F 81% 30.12 in 10.0 mi Calm Calm - N/A   Clear
4:55 AM 24.6 °F 20.3 °F 19.2 °F 80% 30.13 in 10.0 mi WSW 3.5 mph - N/A   Clear
5:15 AM 23.2 °F 18.7 °F 18.9 °F 84% 30.12 in 10.0 mi WSW 3.5 mph - N/A   Scattered Clouds
5:35 AM 23.9 °F - 18.7 °F 80% 30.12 in 10.0 mi Calm Calm - N/A   Clear
5:55 AM 21.2 °F - 17.8 °F 87% 30.11 in 10.0 mi Calm Calm - N/A   Clear
6:15 AM 21.9 °F - 18.3 °F 86% 30.11 in 10.0 mi Calm Calm - N/A   Clear
6:35 AM 21.6 °F - 18.0 °F 86% 30.11 in 10.0 mi Calm Calm - N/A   Clear
6:55 AM 20.3 °F 15.4 °F 17.8 °F 90% 30.12 in 10.0 mi SW 3.5 mph - N/A   Clear
7:15 AM 21.0 °F - 17.6 °F 87% 30.12 in 10.0 mi Calm Calm - N/A   Scattered Clouds
7:35 AM 21.2 °F - 18.3 °F 89% 30.13 in 7.0 mi Calm Calm - N/A   Mostly Cloudy
7:55 AM 22.8 °F - 19.6 °F 87% 30.13 in 10.0 mi Calm Calm - N/A   Overcast
8:15 AM 23.5 °F - 20.3 °F 87% 30.11 in 10.0 mi Calm Calm - N/A   Overcast
8:35 AM 24.4 °F - 20.3 °F 84% 30.11 in 10.0 mi Calm Calm - N/A   Overcast
8:55 AM 25.2 °F - 21.0 °F 84% 30.11 in 10.0 mi Calm Calm - N/A   Overcast
9:15 AM 25.7 °F - 21.0 °F 82% 30.11 in 10.0 mi Calm Calm - N/A   Overcast
9:35 AM 26.4 °F - 21.4 °F 81% 30.12 in 10.0 mi Calm Calm - N/A   Overcast
9:55 AM 27.3 °F - 21.6 °F 79% 30.12 in 10.0 mi Calm Calm - N/A   Overcast
10:15 AM 27.5 °F 23.6 °F 21.2 °F 77% 30.13 in 10.0 mi NW 3.5 mph - N/A   Overcast
10:35 AM 27.5 °F - 21.4 °F 78% 30.12 in 10.0 mi Calm Calm - N/A   Overcast
10:55 AM 28.0 °F - 21.2 °F 76% 30.11 in 10.0 mi Calm Calm - N/A   Overcast
11:15 AM 28.8 °F - 21.2 °F 73% 30.11 in 10.0 mi Calm Calm - N/A   Overcast
11:35 AM 29.3 °F 25.6 °F 21.7 °F 73% 30.10 in 10.0 mi South 3.5 mph - N/A   Overcast
11:55 AM 29.7 °F 26.1 °F 22.1 °F 73% 30.08 in 10.0 mi SSW 3.5 mph - N/A   Overcast
12:15 PM 30.2 °F - 22.3 °F 72% 30.08 in 10.0 mi Calm Calm - N/A   Overcast
12:35 PM 30.9 °F 27.5 °F 22.6 °F 71% 30.06 in 10.0 mi South 3.5 mph - N/A   Overcast
12:55 PM 31.6 °F 26.0 °F 21.4 °F 66% 30.06 in 10.0 mi WSW 5.8 mph - N/A   Overcast
1:15 PM 32.0 °F 26.4 °F 23.0 °F 69% 30.06 in 10.0 mi SW 5.8 mph - N/A   Overcast
1:35 PM 32.2 °F 27.7 °F 22.5 °F 67% 30.05 in 10.0 mi SW 4.6 mph - N/A   Overcast
1:55 PM 32.4 °F 26.9 °F 22.6 °F 67% 30.06 in 10.0 mi WSW 5.8 mph - N/A   Overcast
2:15 PM 32.9 °F 26.7 °F 23.0 °F 67% 30.06 in 10.0 mi SW 6.9 mph - N/A   Overcast
2:35 PM 32.9 °F 25.3 °F 24.3 °F 71% 30.07 in 4.0 mi SW 9.2 mph - N/A Snow Light Snow
2:55 PM 32.0 °F 28.7 °F 25.0 °F 75% 30.06 in 4.0 mi WSW 3.5 mph - N/A Snow Light Snow
3:15 PM 32.0 °F 26.4 °F 25.9 °F 78% 30.06 in 5.0 mi West 5.8 mph - N/A Snow Light Snow
3:35 PM 32.0 °F 25.6 °F 25.7 °F 78% 30.06 in 3.0 mi WSW 6.9 mph - N/A   Haze
3:55 PM 32.0 °F 27.5 °F 25.9 °F 78% 30.06 in 7.0 mi West 4.6 mph - N/A   Overcast
4:15 PM 32.0 °F 27.5 °F 26.1 °F 79% 30.06 in 10.0 mi WSW 4.6 mph - N/A   Overcast
4:35 PM 32.0 °F 27.5 °F 26.1 °F 79% 30.05 in 10.0 mi SW 4.6 mph - N/A   Overcast
4:55 PM 32.0 °F 27.5 °F 26.4 °F 80% 30.05 in 10.0 mi WSW 4.6 mph - N/A   Overcast
5:15 PM 32.0 °F 28.7 °F 26.4 °F 80% 30.05 in 10.0 mi West 3.5 mph - N/A   Mostly Cloudy
5:35 PM 32.0 °F 28.7 °F 26.2 °F 79% 30.03 in 10.0 mi SW 3.5 mph - N/A   Mostly Cloudy
5:55 PM 32.0 °F 27.5 °F 26.4 °F 80% 30.04 in 10.0 mi SW 4.6 mph - N/A   Mostly Cloudy
6:15 PM 32.2 °F 26.7 °F 26.6 °F 80% 30.04 in 10.0 mi SW 5.8 mph - N/A   Overcast
6:35 PM 32.5 °F 28.1 °F 26.6 °F 79% 30.03 in 10.0 mi WSW 4.6 mph - N/A   Overcast
6:55 PM 32.7 °F 28.3 °F 26.6 °F 78% 30.04 in 10.0 mi West 4.6 mph - N/A   Overcast
7:15 PM 32.9 °F 27.5 °F 26.6 °F 78% 30.04 in 10.0 mi WSW 5.8 mph - N/A   Overcast
7:35 PM 32.5 °F 26.2 °F 26.4 °F 78% 30.03 in 10.0 mi WSW 6.9 mph - N/A   Overcast
7:55 PM 32.4 °F 25.3 °F 26.2 °F 78% 30.03 in 10.0 mi WSW 8.1 mph - N/A   Overcast
8:15 PM 32.2 °F 26.7 °F 26.2 °F 79% 30.03 in 10.0 mi WSW 5.8 mph - N/A   Overcast
8:35 PM 32.2 °F 25.8 °F 26.1 °F 78% 30.03 in 10.0 mi SW 6.9 mph - N/A   Overcast
8:55 PM 32.2 °F 26.7 °F 26.1 °F 78% 30.03 in 10.0 mi SW 5.8 mph - N/A   Overcast
9:15 PM 32.2 °F 26.7 °F 25.9 °F 78% 30.03 in 10.0 mi WSW 5.8 mph - N/A   Overcast
9:35 PM 32.0 °F 26.4 °F 25.9 °F 78% 30.03 in 10.0 mi SW 5.8 mph - N/A   Overcast
9:55 PM 32.0 °F 27.5 °F 25.9 °F 78% 30.03 in 10.0 mi SW 4.6 mph - N/A   Overcast
10:15 PM 32.0 °F 27.5 °F 26.1 °F 79% 30.03 in 10.0 mi SW 4.6 mph - N/A   Overcast
10:35 PM 32.0 °F 28.7 °F 26.1 °F 79% 30.03 in 10.0 mi SW 3.5 mph - N/A   Overcast
10:55 PM 32.0 °F 27.5 °F 26.1 °F 79% 30.03 in 10.0 mi SW 4.6 mph - N/A   Overcast
11:15 PM 32.0 °F 27.5 °F 26.1 °F 79% 30.03 in 10.0 mi WSW 4.6 mph - N/A   Overcast
11:35 PM 32.0 °F 28.7 °F 25.9 °F 78% 30.03 in 10.0 mi West 3.5 mph - N/A   Overcast
11:55 PM 32.0 °F 27.5 °F 26.1 °F 79% 30.02 in 10.0 mi West 4.6 mph - N/A   Overcast